Location: Unspecified
(0.0000°N, 0.0000°E)
Time: 23:16:09
(UTC+00:00)

USA 112 - Visible Passes

Search period start: 06 June 2023 00:00
Search period end: 16 June 2023 00:00
Orbit: 1195 x 39159 km, 63.0° (Epoch: 20 September)

Date Brightness Start Highest point End Pass type
(mag) Time Alt. Az. Time Alt. Az. Time Alt. Az.
06 Jun 7.9 22:58:02 34° WSW 23:11:59 59° WNW 10:20:24 10° SSE visible
07 Jun 7.9 22:51:42 26° SW 23:07:31 59° WNW 10:15:56 10° SSE visible
08 Jun 8.2 22:43:27 10° SW 23:03:02 59° WNW 10:11:27 10° SSE visible
09 Jun 8.2 22:38:59 10° SW 22:58:33 59° WNW 10:06:59 10° SSE visible
10 Jun 8.2 22:34:30 10° SW 22:54:05 59° WNW 10:02:31 10° SSE visible
11 Jun 8.2 22:30:02 10° SW 22:49:36 59° WNW 09:58:02 10° SSE visible
12 Jun 8.2 22:25:33 10° SW 22:45:07 59° WNW 09:53:34 10° SSE visible
13 Jun 8.2 22:21:05 10° SW 22:40:38 59° WNW 09:49:05 10° SSE visible
14 Jun 8.2 22:16:36 10° SW 22:36:09 59° WNW 09:44:37 10° SSE visible
